Home   Weather   Chinle   Past weeks

Flag for USA Past Weather in Chinle, Arizona, USA — Yesterday and Last 2 Weeks

Now
71 °F

Scattered clouds.


Feels Like: 77 °F
Forecast: 49 / 76 °F
Wind: 7 mph from West

Location: Window Rock Airport

Current Time: Sep 30, 2016 at 2:23:52 PM

Latest Report: Sep 30, 2016 at 1:53 PM


Visibility: 10 mi

Pressure: 30.05 "Hg (24.74 "Hg at 1678m altitude)

Humidity: 34%

Dew Point: 41 °F

Location of ChinleLocation

Past Weather in Chinle — Graph

°F

Chinle Temperature Yesterday

Maximum temperature yesterday: 58 °F (at 9:53 AM)
Minimum temperature yesterday: 47 °F (at 10:53 PM)
Average temperature yesterday: 55 °F

High & Low Weather Summary for the Past Weeks

 TemperatureHumidityPressure
High87 °F (Sep 19, 4:53 PM)96% (Sep 22, 7:53 AM)30.51 "Hg (Sep 22, 7:53 AM)
Low29 °F (Sep 24, 4:53 AM)5% (Sep 19, 3:53 PM)29.59 "Hg (Sep 23, 3:53 AM)
Average58 °F47%30.03 "Hg
* Reported Sep 15 12:53 PM — Sep 30 12:53 PM, Chinle, Weather by CustomWeather, © 2016

Note: Actual official high and low records may vary slightly from our data, if they occured in-between our weather recording intervals... More about our weather records

Advertising

Chinle Weather History for the Previous 24 Hours

Scroll right to see more
 ConditionsComfort  
Time TempWeatherWind HumidityBarometerVisibility
12:53 PM
Fri, Sep 30
67 °FSunny.6 mph51%30.10 "Hg10 mi
11:53 AM65 °FSunny.3 mph61%30.14 "Hg10 mi
10:53 AM60 °FSunny.3 mph72%30.19 "Hg10 mi
9:53 AM56 °FSunny.No wind81%30.20 "Hg10 mi
8:53 AM48 °FPassing clouds.3 mph93%30.22 "Hg10 mi
7:53 AM42 °FSunny.No wind92%30.23 "Hg10 mi
6:53 AM42 °FFog.No wind92%30.21 "Hg1 mi
5:53 AM44 °FFog.No wind93%30.18 "Hg0 mi
4:53 AM45 °FFog.No wind90%30.19 "Hg1 mi
3:53 AM45 °FFog.No wind93%30.19 "Hg1 mi
2:53 AM46 °FFog.No wind93%30.19 "Hg1 mi
1:59 AM47 °FFog.No wind93%30.41 "Hg1 mi
1:02 AM48 °FFog.No wind93%30.43 "Hg1 mi
12:53 AM48 °FFog.No wind93%30.23 "Hg1 mi
11:53 PM
Thu, Sep 29
49 °FFog.No wind93%30.23 "Hg0 mi
10:53 PM47 °FFog.No wind93%30.23 "Hg1 mi
9:53 PM50 °FClear.No wind89%30.21 "Hg10 mi
8:53 PM52 °FClear.No wind86%30.20 "Hg10 mi
7:53 PM54 °FClear.No wind83%30.19 "Hg10 mi
6:53 PM56 °FPassing clouds.5 mph81%30.18 "Hg10 mi
5:53 PM57 °FPartly sunny.5 mph81%30.19 "Hg10 mi
4:53 PM55 °FMore clouds than sun.6 mph83%30.22 "Hg10 mi
3:53 PM57 °FLight rain. Mostly cloudy.15 mph78%30.25 "Hg7 mi
2:53 PM57 °FRain. More clouds than sun.7 mph83%30.22 "Hg4 mi
Weather by CustomWeather, © 2016

See weather overviewHow to use our weather pages